Temperature
23 23 22 22 21 21 20 20 20 19 19 18 18 18 18 18 18 18 18 18 18 18 18 18 18 18 18 18 17 17 17 17 17 17 17 17 17 17 17 17 17 17 17
22 22 22 21 21 21 20 20 20 19 19 19 18 18 18 18 18 18 18 18 17 18 18 18 18 18 18 18 17 17 17 17 17 17 17 17 17 17 17 17 17 17 17
22 22 21 21 21 20 20 20 19 19 19 18 18 18 17 17 17 17 17 17 17 18 18 18 18 18 18 18 18 17 17 17 17 17 17 17 17 17 17 17 17 17 17
22 22 22 21 21 20 20 19 19 19 19 18 18 18 18 18 18 18 17 17 17 17 17 18 18 18 17 17 18 17 17 17 17 17 17 17 17 17 17 17 17 17 17
23 22 22 22 21 20 20 19 19 19 18 18 18 18 18 18 18 17 17 17 17 17 17 17 18 18 17 17 17 17 17 17 17 17 17 17 17 17 17 18 18 17 17
23 22 22 21 20 20 20 19 19 18 18 18 18 18 18 18 17 17 17 17 17 17 17 17 17 17 17 17 17 17 17 17 17 17 17 17 17 18 18 18 18 18 18
22 22 21 21 20 20 19 19 19 18 18 18 18 18 17 17 17 17 17 17 17 17 17 17 17 17 17 17 17 17 17 17 17 17 17 17 17 17 17 18 18 18 18
22 22 22 21 21 20 20 19 19 18 18 18 18 17 17 17 17 17 17 17 17 17 17 17 17 17 17 17 17 17 17 17 17 17 17 17 17 17 17 17 17 17 17
22 22 22 21 21 20 20 19 19 18 18 18 18 17 17 17 17 17 17 17 17 17 17 17 17 17 17 17 17 17 17 17 17 17 17 17 17 17 17 17 17 17 17
22 22 21 21 21 20 20 19 19 18 18 18 17 17 17 17 17 17 17 17 17 17 17 17 17 17 17 17 17 17 17 17 17 17 17 17 17 17 17 17 17 17 17
22 22 21 21 20 20 19 19 18 18 18 18 17 17 17 17 17 17 17 17 17 17 17 17 17 17 17 17 17 17 17 17 17 16 16 17 17 17 17 17 17 17 17
22 22 21 21 20 20 19 19 18 18 18 18 17 17 17 17 17 17 17 17 17 17 17 17 17 17 17 17 17 17 17 16 16 16 16 16 16 16 16 16 16 16 16
21 21 21 20 20 20 19 19 18 18 18 18 17 17 17 17 17 17 17 17 17 17 17 17 17 17 17 17 17 16 16 16 16 16 16 16 16 16 16 16 16 16 16
21 21 20 20 20 19 19 19 18 18 18 18 17 17 17 17 17 17 17 17 17 17 17 17 17 16 16 16 16 16 16 16 16 16 16 15 15 15 15 15 15 15 15
20 20 20 20 19 19 19 18 18 18 18 18 17 17 17 17 17 17 17 17 17 17 16 16 16 16 16 16 16 16 15 15 15 15 15 15 15 15 15 15 15 15 15
20 20 20 20 19 19 19 18 18 18 18 17 17 17 17 17 17 16 16 16 16 16 16 16 16 16 16 16 16 15 15 15 15 15 15 15 15 15 15 14 14 14 14
20 20 20 20 19 19 18 18 18 18 17 17 17 17 16 16 16 16 16 16 16 16 16 16 16 15 15 15 15 15 15 15 15 14 14 14 14 14 14 14 14 14 14
20 20 20 19 19 19 18 18 18 17 17 17 17 16 16 16 16 16 16 15 15 15 15 15 15 15 15 15 15 15 14 14 14 14 14 14 14 14 14 14 13 13 13
20 19 19 19 19 18 18 18 17 17 17 17 17 16 16 16 16 15 15 15 15 15 15 14 14 14 14 14 14 14 14 14 14 13 13 13 13 13 13 13 13 13 12
19 19 18 18 18 17 17 17 17 17 16 16 16 16 16 16 15 15 15 15 14 14 14 14 14 14 14 14 14 13 13 13 13 13 12 12 12 12 12 12 12 12 11
18 18 18 18 17 17 17 17 16 16 16 16 16 15 15 15 15 15 15 14 14 14 14 14 13 13 13 13 13 13 13 12 12 12 12 12 11 11 11 11 11 11 11
17 17 17 17 16 16 16 16 16 15 15 15 15 15 15 14 14 14 14 14 14 13 13 13 13 13 12 12 12 12 12 12 12 11 11 11 11 10 10 10 10 10 10
17 16 16 16 16 16 16 16 15 15 15 14 14 14 14 14 14 13 13 13 13 13 13 12 12 12 12 11 11 11 11 11 11 10 10 10 10 10 9 9 9 9 9
16 15 15 15 15 15 15 15 14 14 14 14 14 13 13 13 13 13 13 12 12 12 12 12 12 11 11 10 10 10 10 10 10 9 9 9 9 8 8 8 8 8 8
15 15 15 15 14 14 14 14 14 13 13 13 13 13 12 12 12 12 12 12 12 11 11 11 11 11 10 10 10 10 9 9 9 9 8 8 8 8 7 7 7 7 7
14 14 14 14 13 13 13 13 13 13 13 13 12 12 12 11 11 11 11 11 11 10 10 10 10 10 9 9 9 9 9 8 8 8 8 8 7 7 7 7 6 6 6
Wind_Speed
9 11 12 12 11 11 11 11 11 10 9 7 6 6 5 4 4 5 9 10 10 10 8 5 4 4 4 4 5 3 3 2 2 3 2 3 1 2 4 5 6 9 13
9 10 10 11 11 11 11 11 11 11 10 8 6 4 4 4 4 4 7 9 9 10 9 6 5 4 4 4 4 4 3 1 2 3 2 1 3 3 3 3 5 7 9
14 12 11 10 11 11 12 11 11 11 9 8 6 4 4 3 3 3 4 6 9 9 9 8 6 5 5 5 5 5 5 3 1 2 4 3 4 3 3 3 4 5 5
12 12 12 11 11 11 10 10 10 10 9 10 9 9 7 6 6 5 4 5 7 8 9 8 7 5 5 5 5 5 4 4 2 1 1 3 4 3 1 3 2 4 6
14 13 13 12 11 10 10 9 9 9 9 9 10 9 6 5 4 4 5 6 5 7 9 8 7 6 5 6 5 5 4 4 4 3 2 1 1 2 3 2 3 2 3
13 12 10 9 8 9 9 9 9 9 9 9 9 9 9 7 6 6 6 5 4 4 6 7 6 6 5 6 5 5 6 4 4 3 3 3 2 3 3 3 3 3 4
12 12 12 11 10 11 11 10 10 8 8 9 8 9 9 8 8 7 7 6 5 4 6 6 5 5 6 6 5 5 5 5 5 4 3 3 3 3 3 3 2 2 3
11 12 13 12 12 12 11 10 10 8 8 8 8 7 7 6 6 7 6 6 5 5 6 6 6 6 7 6 5 4 5 4 5 5 4 2 2 3 3 4 3 1 2
11 11 11 11 11 11 10 10 10 8 8 8 7 6 7 6 6 6 5 5 4 5 6 6 7 6 6 6 6 4 5 4 4 4 4 3 2 2 2 3 4 4 3
10 10 10 10 9 9 8 8 8 8 7 7 7 6 6 6 6 5 6 6 5 5 6 6 6 6 6 6 6 5 4 5 4 4 4 3 2 1 1 2 2 3 4
10 10 9 9 9 8 8 8 7 6 6 6 5 5 5 5 5 5 6 6 5 5 5 6 6 6 6 6 5 6 5 5 4 3 4 4 3 2 1 1 2 2 3
11 10 10 9 9 9 8 8 7 7 6 6 5 5 4 4 5 5 5 5 5 5 5 5 5 5 5 5 6 6 6 6 5 5 4 4 3 3 2 2 1 2 2
10 10 9 9 9 9 8 8 7 6 5 5 5 4 4 4 4 4 4 4 4 4 4 4 4 4 4 4 5 6 6 5 5 5 4 4 3 3 2 2 2 2 2
12 10 9 8 8 8 8 8 7 7 6 5 5 4 4 4 4 4 4 4 4 4 4 4 3 3 3 3 4 5 5 4 4 3 4 3 3 4 3 2 2 2 1
12 11 9 8 8 7 7 7 7 6 6 6 5 4 4 3 3 3 3 3 3 4 3 3 2 2 2 3 4 4 4 4 3 2 2 2 3 3 3 2 2 2 2
13 11 9 9 8 8 8 7 6 6 6 6 5 4 4 3 3 3 4 4 4 3 3 3 3 2 1 2 4 5 4 4 3 3 2 2 2 2 3 3 4 4 3
12 11 9 8 7 7 7 7 6 6 6 5 5 4 4 4 4 4 4 4 4 4 4 3 3 3 2 3 5 6 4 4 2 2 2 1 1 2 2 3 4 4 4
11 10 8 7 6 6 6 6 6 6 6 5 5 4 5 4 4 4 4 4 4 4 3 3 4 4 3 4 6 8 6 5 4 3 3 3 2 2 3 4 4 4 4
9 8 7 7 7 6 6 7 6 6 6 5 4 4 5 5 5 4 4 4 5 5 4 4 4 4 3 4 6 7 5 5 5 4 4 4 3 4 6 7 7 6 4
10 9 7 8 8 7 8 8 7 6 5 4 4 4 4 5 5 5 4 4 5 6 5 5 5 5 4 5 6 7 5 6 5 5 5 7 6 6 7 6 6 6 3
10 10 10 8 7 7 8 8 7 6 5 5 6 6 5 5 5 5 5 6 6 7 7 7 6 6 6 6 8 7 5 6 5 4 4 4 9 10 10 8 6 6 5
10 9 10 8 6 7 8 8 6 5 6 7 7 7 6 6 6 7 6 6 7 8 7 8 7 6 6 7 8 10 9 8 7 5 4 5 10 12 12 9 10 11 8
9 8 9 8 6 6 7 8 5 6 7 8 8 7 8 7 6 6 6 6 6 6 6 6 6 5 5 7 11 11 11 11 7 6 8 10 11 11 10 12 12 9 7
9 8 10 9 7 6 6 6 6 6 8 9 8 7 8 8 8 7 6 6 5 6 6 6 6 6 5 5 5 6 7 10 9 7 9 13 14 11 10 9 8 6 6
8 9 9 8 7 6 6 6 6 7 9 9 9 8 8 9 9 9 8 6 5 4 7 5 6 6 5 4 6 6 6 5 6 7 7 7 7 7 7 6 7 6 6
8 9 9 9 7 7 7 6 6 7 9 8 8 7 7 8 8 9 10 15 13 15 13 11 9 7 8 10 12 12 12 11 11 9 7 6 6 6 6 6 6 6 6
Wind_Direction
160 152 154 154 152 153 156 159 160 160 155 155 160 158 165 165 165 179 181 180 181 177 168 167 163 151 153 162 150 134 127 124 124 90 40 349 319 211 207 200 194 203 207
149 152 154 158 160 162 163 162 164 164 165 166 163 157 156 161 168 182 188 189 185 178 177 168 168 160 156 155 146 133 129 138 140 132 113 11 338 311 239 214 201 206 207
159 160 165 167 163 165 169 168 165 164 164 159 145 133 120 124 162 189 190 195 188 182 176 174 170 166 163 171 171 157 148 160 175 154 148 156 216 272 302 251 220 203 199
162 167 167 167 170 171 166 160 162 163 163 161 162 164 171 180 194 188 187 193 190 183 180 177 175 175 173 176 184 172 161 154 171 197 186 175 163 164 267 307 272 230 212
168 173 172 170 170 167 164 162 161 167 169 170 171 174 182 187 182 176 183 197 200 190 186 181 177 176 179 183 181 167 166 162 166 175 177 162 154 152 158 240 283 281 238
167 166 164 155 160 161 161 163 168 175 177 175 177 181 182 182 178 185 191 200 201 200 193 183 180 180 182 186 186 179 172 173 168 172 169 166 170 189 175 200 234 245 261
160 157 156 158 164 165 167 167 171 176 178 179 181 184 186 186 187 190 196 198 199 206 202 196 185 184 188 186 180 177 178 177 172 179 183 179 189 179 170 172 201 233 273
165 166 167 167 169 169 169 168 171 173 177 182 184 186 183 186 194 194 190 196 200 203 197 193 191 189 186 187 175 181 189 184 184 188 182 181 197 185 180 172 163 187 291
166 168 164 163 163 166 169 169 170 171 177 182 182 184 186 188 193 191 187 189 197 202 195 188 191 190 185 182 176 185 191 183 191 193 189 190 201 189 189 176 167 163 201
160 160 158 159 159 161 159 159 164 174 179 182 184 184 185 188 186 184 189 190 193 200 188 187 191 190 189 186 187 188 193 187 198 194 189 195 196 174 166 170 171 170 177
160 160 157 153 151 150 152 157 163 162 169 177 179 177 183 187 186 188 190 189 189 192 189 186 185 186 189 189 181 183 183 190 203 204 198 208 202 195 198 161 151 163 163
156 152 149 145 145 150 156 160 165 166 172 174 172 178 178 177 181 189 191 184 186 185 182 177 173 182 185 184 187 190 187 191 201 207 203 220 213 208 203 175 172 181 179
148 144 146 148 153 157 159 163 166 169 168 165 166 174 176 172 179 179 172 169 174 172 170 166 171 178 181 186 194 188 187 194 202 200 199 215 200 211 210 188 190 206 192
149 147 150 155 158 160 160 163 168 169 166 163 165 170 175 172 170 159 150 155 166 169 167 167 169 176 184 186 189 181 181 186 189 188 187 192 189 203 204 195 206 204 178
149 152 154 155 154 156 158 160 165 167 166 162 163 170 171 166 153 149 152 155 158 168 164 154 151 152 164 183 174 169 169 167 173 177 174 165 152 162 178 187 192 176 160
157 157 153 148 151 155 156 153 156 159 149 152 161 161 148 140 142 150 150 147 150 146 136 135 142 138 180 148 149 154 151 147 155 169 175 150 123 113 117 119 122 137 159
150 149 148 150 149 150 150 150 151 142 140 147 149 147 146 148 156 158 147 146 147 137 135 142 136 129 121 127 133 135 135 126 131 141 139 132 88 97 106 91 80 67 66
140 138 142 139 130 125 129 136 130 130 139 143 144 144 145 149 149 144 146 145 135 131 125 123 122 115 99 114 129 127 122 114 105 104 116 120 101 96 111 106 86 67 47
125 125 130 123 114 112 115 115 114 116 119 128 136 142 142 140 138 140 143 141 129 117 106 106 105 104 85 96 124 126 114 104 86 74 79 106 108 95 105 108 102 84 57
113 112 108 104 103 101 102 101 100 102 104 109 116 120 131 138 139 140 134 121 115 116 110 94 86 91 86 89 116 126 119 108 95 70 58 65 81 86 98 111 113 104 87
107 107 103 101 105 107 105 102 98 94 93 90 90 88 94 108 115 114 112 112 114 112 106 96 80 73 72 77 90 107 118 121 110 91 65 53 72 76 77 85 93 103 102
100 103 104 96 91 101 110 108 102 98 92 89 87 83 81 88 99 104 104 104 110 108 103 95 81 63 57 63 79 87 95 104 103 97 81 68 68 71 71 74 76 80 82
102 102 104 97 83 82 100 107 102 102 100 95 90 86 81 78 81 94 105 103 103 108 107 102 92 73 59 58 68 78 83 86 90 90 88 80 73 68 67 68 72 74 76
109 108 105 103 91 81 88 101 105 105 105 101 94 87 85 78 70 68 74 91 98 106 107 106 101 87 68 59 64 74 78 77 82 84 76 72 69 68 64 60 60 62 71
112 110 110 108 102 94 92 97 102 105 103 99 97 91 86 86 78 69 57 68 64 103 116 114 116 111 94 70 85 95 89 90 95 95 81 71 69 66 61 59 57 57 59
110 108 108 108 106 101 97 92 97 110 114 108 102 100 98 95 96 94 77 57 68 72 78 90 99 87 96 95 87 87 89 92 96 91 87 83 79 79 78 75 65 57 57
Height
1512 1515 1518 1521 1523 1526 1528 1530 1532 1535 1538 1540 1543 1545 1548 1551 1554 1556 1559 1561 1563 1565 1567 1569 1570 1572 1574 1575 1576 1578 1579 1580 1582 1583 1583 1584 1584 1585 1585 1586 1586 1587 1587
1512 1514 1517 1519 1521 1523 1525 1528 1530 1533 1535 1538 1541 1544 1547 1550 1552 1555 1557 1559 1561 1564 1566 1567 1569 1571 1573 1574 1575 1576 1578 1579 1581 1582 1582 1583 1584 1584 1584 1584 1585 1585 1586
1508 1512 1515 1517 1519 1521 1523 1526 1528 1530 1533 1537 1540 1542 1545 1548 1550 1553 1555 1557 1560 1562 1563 1566 1568 1569 1571 1572 1574 1575 1576 1578 1579 1580 1581 1581 1581 1582 1582 1582 1583 1584 1584
1508 1510 1513 1515 1518 1520 1522 1525 1527 1529 1532 1534 1537 1540 1542 1544 1547 1549 1552 1555 1558 1560 1561 1564 1566 1567 1569 1570 1572 1573 1575 1576 1577 1578 1579 1580 1580 1580 1580 1581 1581 1582 1582
1505 1508 1511 1513 1517 1520 1522 1524 1526 1528 1530 1533 1535 1538 1540 1543 1545 1548 1550 1552 1555 1557 1559 1561 1563 1565 1566 1568 1570 1571 1573 1574 1575 1576 1577 1578 1578 1579 1579 1579 1580 1580 1580
1503 1507 1511 1514 1516 1519 1521 1523 1525 1527 1529 1531 1533 1536 1538 1541 1543 1545 1547 1549 1552 1554 1556 1558 1560 1562 1564 1566 1567 1569 1570 1572 1573 1574 1575 1576 1576 1577 1577 1577 1577 1577 1578
1503 1506 1510 1513 1515 1518 1520 1522 1524 1526 1528 1529 1531 1534 1536 1538 1540 1542 1544 1546 1548 1550 1552 1555 1557 1559 1561 1563 1565 1566 1567 1569 1570 1571 1572 1573 1574 1575 1575 1575 1575 1575 1576
1503 1506 1508 1511 1514 1517 1519 1521 1523 1524 1526 1528 1529 1532 1534 1536 1537 1539 1541 1543 1545 1548 1550 1552 1554 1556 1558 1560 1562 1563 1564 1566 1567 1569 1570 1571 1571 1572 1573 1573 1573 1573 1573
1504 1506 1508 1511 1514 1516 1518 1520 1522 1523 1525 1526 1528 1529 1531 1533 1535 1537 1539 1540 1543 1545 1547 1549 1551 1553 1555 1557 1559 1560 1561 1563 1564 1565 1567 1568 1569 1570 1570 1570 1570 1571 1570
1504 1507 1509 1511 1514 1516 1518 1520 1521 1522 1523 1525 1526 1527 1529 1531 1533 1534 1536 1538 1540 1542 1544 1546 1548 1550 1552 1554 1555 1556 1558 1560 1561 1562 1563 1564 1565 1566 1567 1567 1567 1567 1568
1504 1506 1509 1511 1514 1516 1518 1519 1520 1521 1522 1523 1525 1526 1527 1529 1530 1532 1534 1536 1537 1539 1541 1543 1545 1547 1549 1551 1552 1553 1555 1556 1558 1559 1560 1561 1562 1562 1563 1564 1564 1564 1564
1503 1506 1508 1511 1513 1516 1517 1519 1520 1521 1522 1523 1524 1524 1526 1527 1529 1530 1532 1534 1536 1538 1539 1541 1543 1544 1546 1548 1549 1550 1552 1553 1554 1555 1556 1557 1558 1559 1560 1560 1560 1561 1561
1503 1506 1508 1511 1513 1515 1517 1518 1519 1520 1521 1522 1523 1524 1525 1526 1527 1529 1530 1533 1534 1535 1537 1538 1540 1541 1543 1544 1546 1547 1549 1550 1551 1552 1553 1554 1555 1556 1556 1557 1557 1557 1558
1502 1505 1508 1510 1512 1514 1515 1517 1518 1520 1521 1522 1522 1523 1524 1525 1526 1528 1529 1531 1532 1533 1535 1536 1537 1539 1540 1541 1543 1544 1545 1546 1547 1548 1549 1550 1551 1552 1553 1553 1554 1554 1554
1501 1504 1507 1509 1511 1513 1515 1517 1518 1519 1520 1521 1522 1522 1523 1524 1525 1526 1528 1529 1530 1531 1533 1534 1535 1537 1538 1539 1540 1541 1542 1543 1544 1545 1546 1546 1547 1548 1549 1550 1550 1551 1551
1499 1503 1506 1508 1510 1512 1514 1516 1517 1518 1519 1520 1521 1522 1523 1523 1524 1525 1526 1527 1528 1530 1530 1532 1533 1534 1535 1537 1537 1538 1539 1540 1541 1542 1543 1543 1544 1545 1546 1546 1547 1547 1547
1497 1501 1504 1507 1509 1511 1513 1514 1516 1517 1518 1519 1520 1521 1521 1522 1522 1523 1524 1525 1526 1527 1528 1529 1530 1531 1533 1534 1535 1536 1537 1538 1538 1539 1540 1541 1541 1542 1542 1543 1543 1543 1543
1497 1501 1504 1506 1508 1510 1513 1514 1516 1517 1518 1518 1519 1520 1520 1521 1521 1522 1522 1524 1525 1526 1527 1528 1528 1529 1531 1532 1533 1534 1534 1535 1536 1536 1537 1538 1538 1539 1539 1539 1539 1539 1540
1497 1501 1504 1505 1507 1509 1512 1513 1515 1516 1516 1517 1518 1518 1519 1519 1520 1520 1521 1522 1523 1524 1525 1526 1527 1528 1529 1530 1531 1532 1533 1533 1534 1534 1535 1535 1535 1535 1536 1537 1536 1537 1537
1497 1501 1504 1505 1507 1509 1511 1513 1514 1515 1515 1516 1516 1517 1518 1518 1519 1519 1520 1521 1522 1523 1524 1524 1525 1526 1527 1529 1530 1530 1531 1531 1532 1532 1532 1533 1533 1533 1534 1535 1535 1535 1536
1498 1501 1503 1505 1507 1509 1510 1512 1512 1513 1514 1515 1515 1516 1517 1517 1518 1518 1519 1520 1521 1522 1523 1523 1524 1525 1526 1527 1528 1529 1529 1530 1531 1531 1532 1533 1533 1533 1533 1534 1534 1534 1535
1499 1502 1504 1506 1508 1509 1510 1511 1511 1512 1513 1514 1515 1515 1516 1516 1517 1518 1518 1519 1520 1521 1521 1522 1523 1525 1526 1527 1528 1528 1529 1530 1531 1531 1532 1532 1533 1533 1532 1533 1533 1534 1535
1499 1502 1503 1506 1508 1509 1509 1509 1510 1512 1512 1513 1514 1515 1515 1516 1517 1517 1518 1519 1520 1521 1521 1522 1523 1525 1526 1527 1528 1528 1529 1530 1531 1531 1532 1532 1533 1533 1533 1533 1534 1534 1535
1500 1502 1503 1505 1507 1508 1509 1509 1510 1511 1512 1512 1513 1514 1515 1516 1517 1518 1519 1519 1520 1521 1522 1523 1524 1525 1526 1527 1528 1529 1530 1531 1531 1532 1533 1533 1534 1534 1534 1535 1536 1536 1536
1501 1502 1504 1506 1507 1508 1509 1509 1510 1511 1512 1512 1513 1514 1515 1516 1517 1518 1520 1521 1522 1523 1524 1524 1525 1526 1527 1529 1530 1531 1531 1532 1532 1533 1534 1535 1535 1536 1536 1537 1538 1538 1539
1502 1503 1504 1506 1507 1508 1509 1510 1511 1511 1512 1513 1514 1515 1516 1518 1519 1520 1521 1523 1524 1525 1526 1527 1527 1528 1530 1531 1532 1533 1533 1534 1535 1535 1536 1537 1538 1538 1539 1539 1540 1540 1541